When you browse on this site, cookies collect data to enhance your experience and personalize the content and advertising you see.
Visit our Privacy Policy to learn more. By continuing to use the site, you agree to this use of cookies and data.
  • In United Kingdom
  • List of Countries
  • For 7 days
  • Water Temperature
  • Weather Map
  • Weather Widgets
  • user-avatar
    Login

    Hourly Weather Gyal

    Today, 4 June, Thursday

    Time Temperature Precipitation Wind Pressure Humidity
    00:00 +14°C° 0 mm 1 mps 742 mmHg 79%
    01:00 +14°C° 0 mm 2 mps 742 mmHg 81%
    02:00 +14°C° 0 mm 2 mps 742 mmHg 82%
    03:00 +13°C° 0 mm 2 mps 742 mmHg 83%
    04:00 +13°C° 0 mm 1 mps 741 mmHg 84%
    05:00 +14°C° 0 mm 2 mps 741 mmHg 81%
    06:00 +16°C° 0 mm 3 mps 741 mmHg 79%
    07:00 +17°C° 0 mm 3 mps 741 mmHg 76%
    08:00 +18°C° 0.1 mm 4 mps 741 mmHg 72%
    09:00 +20°C° 0.1 mm 5 mps 741 mmHg 68%
    10:00 +21°C° 0.1 mm 6 mps 741 mmHg 65%
    11:00 +22°C° 0 mm 6 mps 741 mmHg 63%
    12:00 +22°C° 0 mm 6 mps 740 mmHg 62%
    13:00 +23°C° 0 mm 6 mps 740 mmHg 61%
    14:00 +23°C° 0.1 mm 7 mps 740 mmHg 58%
    15:00 +24°C° 0.1 mm 7 mps 739 mmHg 55%
    16:00 +26°C° 0.1 mm 7 mps 739 mmHg 52%
    17:00 +24°C° 0.1 mm 6 mps 738 mmHg 56%
    18:00 +23°C° 0.1 mm 6 mps 738 mmHg 60%
    19:00 +21°C° 0.1 mm 5 mps 738 mmHg 63%
    20:00 +20°C° 0 mm 5 mps 738 mmHg 66%
    21:00 +19°C° 0 mm 5 mps 738 mmHg 68%
    22:00 +17°C° 0 mm 5 mps 738 mmHg 71%
    23:00 +19°C° 0 mm 5 mps 739 mmHg 68%

    Tomorrow, 5 June, Friday

    Time Temperature Precipitation Wind Pressure Humidity
    00:00 +19°C° 0 mm 5 mps 739 mmHg 66%
    01:00 +19°C° 0 mm 5 mps 739 mmHg 63%
    02:00 +19°C° 0.1 mm 5 mps 739 mmHg 63%
    03:00 +17°C° 0.1 mm 5 mps 739 mmHg 63%
    04:00 +17°C° 0.1 mm 5 mps 738 mmHg 63%
    05:00 +17°C° 0.1 mm 5 mps 739 mmHg 65%
    06:00 +19°C° 0.1 mm 6 mps 739 mmHg 67%
    07:00 +19°C° 0.1 mm 6 mps 739 mmHg 69%
    08:00 +20°C° 0.1 mm 6 mps 739 mmHg 68%
    09:00 +21°C° 0.1 mm 6 mps 739 mmHg 67%
    10:00 +22°C° 0.1 mm 5 mps 739 mmHg 66%
    11:00 +23°C° 0.9 mm 6 mps 739 mmHg 66%
    12:00 +23°C° 0.9 mm 6 mps 739 mmHg 67%
    13:00 +24°C° 0.9 mm 6 mps 739 mmHg 67%
    14:00 +23°C° 1.5 mm 6 mps 739 mmHg 70%
    15:00 +22°C° 1.5 mm 5 mps 739 mmHg 74%
    16:00 +21°C° 1.5 mm 4 mps 739 mmHg 77%
    17:00 +20°C° 0.9 mm 4 mps 740 mmHg 81%
    18:00 +19°C° 0.9 mm 4 mps 740 mmHg 86%
    19:00 +18°C° 0.9 mm 4 mps 740 mmHg 90%
    20:00 +18°C° 0 mm 3 mps 741 mmHg 91%
    21:00 +17°C° 0 mm 3 mps 741 mmHg 92%
    22:00 +17°C° 0 mm 2 mps 742 mmHg 93%
    23:00 +17°C° 0 mm 2 mps 742 mmHg 92%

    Day after tomorrow, 6 June, Saturday

    Time Temperature Precipitation Wind Pressure Humidity
    00:00 +16°C° 0 mm 2 mps 743 mmHg 92%
    01:00 +16°C° 0 mm 2 mps 743 mmHg 92%
    02:00 +16°C° 0 mm 1 mps 744 mmHg 91%
    03:00 +16°C° 0 mm 1 mps 744 mmHg 89%
    04:00 +16°C° 0 mm 1 mps 744 mmHg 88%
    05:00 +18°C° 0 mm 1 mps 745 mmHg 81%
    06:00 +19°C° 0 mm 1 mps 745 mmHg 75%
    07:00 +20°C° 0 mm 1 mps 746 mmHg 69%
    08:00 +21°C° 0 mm 2 mps 746 mmHg 61%
    09:00 +23°C° 0 mm 2 mps 746 mmHg 54%
    10:00 +25°C° 0 mm 2 mps 746 mmHg 46%
    11:00 +25°C° 0 mm 2 mps 746 mmHg 47%
    12:00 +26°C° 0 mm 2 mps 746 mmHg 47%
    13:00 +27°C° 0 mm 3 mps 745 mmHg 48%
    14:00 +26°C° 0.2 mm 3 mps 745 mmHg 50%
    15:00 +26°C° 0.2 mm 3 mps 744 mmHg 53%
    16:00 +26°C° 0.2 mm 3 mps 744 mmHg 56%
    17:00 +25°C° 0.2 mm 2 mps 744 mmHg 62%
    18:00 +24°C° 0.2 mm 2 mps 744 mmHg 68%
    19:00 +23°C° 0.2 mm 2 mps 744 mmHg 74%
    20:00 +21°C° 0.2 mm 2 mps 744 mmHg 78%
    21:00 +20°C° 0.2 mm 2 mps 744 mmHg 83%
    22:00 +19°C° 0.2 mm 2 mps 744 mmHg 87%
    23:00 +18°C° 0.6 mm 2 mps 744 mmHg 88%

    7 June, Sunday

    Time Temperature Precipitation Wind Pressure Humidity
    00:00 +18°C° 0.6 mm 2 mps 744 mmHg 89%
    01:00 +19°C° 0.6 mm 1 mps 744 mmHg 90%
    02:00 +18°C° 0.4 mm 1 mps 744 mmHg 91%
    03:00 +18°C° 0.4 mm 1 mps 744 mmHg 91%
    04:00 +17°C° 0.4 mm 2 mps 744 mmHg 92%
    05:00 +19°C° 0.4 mm 1 mps 744 mmHg 89%
    06:00 +20°C° 0.4 mm 1 mps 745 mmHg 85%
    07:00 +21°C° 0.4 mm 1 mps 745 mmHg 82%
    08:00 +22°C° 1.1 mm 1 mps 745 mmHg 77%
    09:00 +24°C° 1.1 mm 1 mps 745 mmHg 72%
    10:00 +25°C° 1.1 mm 1 mps 745 mmHg 66%
    11:00 +25°C° 1.1 mm 2 mps 745 mmHg 65%
    12:00 +26°C° 1.1 mm 2 mps 745 mmHg 63%
    13:00 +26°C° 1.1 mm 3 mps 745 mmHg 61%
    14:00 +26°C° 0.6 mm 2 mps 745 mmHg 60%
    15:00 +26°C° 0.6 mm 2 mps 745 mmHg 59%
    16:00 +27°C° 0.6 mm 2 mps 745 mmHg 58%
    17:00 +25°C° 0.7 mm 2 mps 745 mmHg 64%
    18:00 +24°C° 0.7 mm 2 mps 745 mmHg 71%
    19:00 +23°C° 0.7 mm 2 mps 745 mmHg 77%
    20:00 +21°C° 0.2 mm 2 mps 745 mmHg 80%
    21:00 +20°C° 0.2 mm 2 mps 745 mmHg 82%
    22:00 +18°C° 0.2 mm 2 mps 746 mmHg 85%
    23:00 +18°C° 0 mm 2 mps 746 mmHg 86%

    8 June, Monday

    Time Temperature Precipitation Wind Pressure Humidity
    00:00 +17°C° 0 mm 2 mps 746 mmHg 87%
    01:00 +17°C° 0 mm 2 mps 745 mmHg 87%
    02:00 +16°C° 0 mm 2 mps 745 mmHg 88%
    03:00 +16°C° 0 mm 2 mps 745 mmHg 88%
    04:00 +16°C° 0 mm 2 mps 745 mmHg 89%
    05:00 +17°C° 0.1 mm 2 mps 746 mmHg 86%
    06:00 +18°C° 0.1 mm 2 mps 746 mmHg 84%
    07:00 +18°C° 0.1 mm 2 mps 746 mmHg 81%
    08:00 +20°C° 0 mm 2 mps 746 mmHg 76%
    09:00 +21°C° 0 mm 2 mps 746 mmHg 71%
    10:00 +24°C° 0 mm 2 mps 746 mmHg 66%
    11:00 +24°C° 0 mm 2 mps 746 mmHg 63%
    12:00 +25°C° 0 mm 3 mps 746 mmHg 61%
    13:00 +26°C° 0 mm 4 mps 746 mmHg 58%
    14:00 +25°C° 0.3 mm 4 mps 746 mmHg 60%
    15:00 +25°C° 0.3 mm 4 mps 746 mmHg 61%
    16:00 +25°C° 0.3 mm 3 mps 745 mmHg 63%
    17:00 +24°C° 0.1 mm 3 mps 745 mmHg 67%
    18:00 +21°C° 0.1 mm 3 mps 746 mmHg 71%
    19:00 +20°C° 0.1 mm 2 mps 746 mmHg 76%
    20:00 +19°C° 0 mm 2 mps 746 mmHg 78%
    21:00 +18°C° 0 mm 2 mps 746 mmHg 81%
    22:00 +17°C° 0 mm 2 mps 747 mmHg 84%
    23:00 +17°C° 0 mm 2 mps 747 mmHg 85%

    9 June, Tuesday

    Time Temperature Precipitation Wind Pressure Humidity
    00:00 +16°C° 0 mm 1 mps 747 mmHg 87%
    01:00 +16°C° 0 mm 1 mps 747 mmHg 88%
    02:00 +16°C° 0 mm 1 mps 747 mmHg 89%
    03:00 +16°C° 0 mm 1 mps 747 mmHg 89%
    04:00 +15°C° 0 mm 1 mps 746 mmHg 90%
    05:00 +18°C° 0 mm 1 mps 747 mmHg 86%
    06:00 +19°C° 0 mm 1 mps 747 mmHg 82%
    07:00 +20°C° 0 mm 1 mps 748 mmHg 78%
    08:00 +22°C° 0 mm 1 mps 748 mmHg 72%
    09:00 +23°C° 0 mm 1 mps 748 mmHg 66%
    10:00 +25°C° 0 mm 1 mps 748 mmHg 59%
    11:00 +25°C° 0 mm 1 mps 748 mmHg 57%
    12:00 +26°C° 0 mm 1 mps 747 mmHg 55%
    13:00 +27°C° 0 mm 2 mps 747 mmHg 53%
    14:00 +27°C° 0.2 mm 2 mps 747 mmHg 53%
    15:00 +27°C° 0.2 mm 2 mps 747 mmHg 54%
    16:00 +27°C° 0.2 mm 2 mps 747 mmHg 54%
    17:00 +26°C° 0.9 mm 2 mps 747 mmHg 61%
    18:00 +24°C° 0.9 mm 2 mps 747 mmHg 67%
    19:00 +23°C° 0.9 mm 2 mps 747 mmHg 74%
    20:00 +21°C° 0.5 mm 2 mps 747 mmHg 77%
    21:00 +20°C° 0.5 mm 2 mps 748 mmHg 81%
    22:00 +19°C° 0.5 mm 2 mps 748 mmHg 85%
    23:00 +19°C° 0.4 mm 2 mps 748 mmHg 86%
    Show more